Weather History for Lompoc, CA

Change the Weather History Date:

Saturday, December 28, 2013

  Actual Average Record
Temperature  
Mean Temperature 48 °F -  
Max Temperature 62 °F 63 °F 82 °F (1956)
Min Temperature 33 °F 39 °F 26 °F (1962)
Degree Days  
Heating Degree Days 18    
Moisture  
Dew Point 38 °F    
Average Humidity 64    
Maximum Humidity 93    
Minimum Humidity 33    
Precipitation  
Precipitation 0.00 in - - ()
Sea Level Pressure  
Sea Level Pressure 30.02 in    
Wind  
Wind Speed 4 mph (South)    
Max Wind Speed 16 mph    
Max Gust Speed 20 mph    
Visibility 9 miles    
Events      
Averages and records for this station are not official NWS values.
T = Trace of Precipitation, MM = Missing Value Source: NWS Daily Summary

Daily Weather History Graph

Daily Weather History Graph

Search for Another Location

Airport:

Trip Planner

Search our weather history database for the weather conditions in past years. The results will help you decide how hot, cold, wet, or windy it might be!

Date:

Astronomy

Dec. 28, 2013 Rise Set
Actual Time 7:08 AM PST 4:59 PM PST
Civil Twilight 6:40 AM PST 5:27 PM PST
Nautical Twilight 6:08 AM PST 5:58 PM PST
Astronomical Twilight 5:37 AM PST 6:29 PM PST
Moon 2:56 AM PST (12/28) 1:49 PM PST (12/28)
Length of Visible Light 10h 47m
Length of Day
9h 51m
Waning Crescent, 18% of the Moon is Illuminated
Dec 28
Waning Crescent
Jan 1
New
Jan 7
First Quarter
Jan 15
Full
Jan 23
Last Quarter

Hourly Weather History & Observations

Time (PST) Temp. Windchill Dew Point Humidity Pressure Visibility Wind Dir Wind Speed Gust Speed Precip Events Conditions
12:15 AM 46.4 °F - 30.2 °F 53% 30.08 in 10.0 mi Calm Calm - N/A   Clear
12:35 AM 46.4 °F - 28.4 °F 50% 30.07 in 10.0 mi Calm Calm - N/A   Clear
12:55 AM 46.4 °F - 28.4 °F 50% 30.07 in 10.0 mi Calm Calm - N/A   Clear
1:15 AM 44.6 °F 43.1 °F 28.4 °F 53% 30.06 in 10.0 mi NE 3.5 mph - N/A   Clear
1:35 AM 46.4 °F - 28.4 °F 50% 30.05 in 10.0 mi Calm Calm - N/A   Clear
1:55 AM 44.6 °F - 28.4 °F 53% 30.06 in 10.0 mi Calm Calm - N/A   Clear
2:15 AM 46.4 °F 44.3 °F 28.4 °F 50% 30.05 in 10.0 mi East 4.6 mph - N/A   Clear
2:35 AM 46.4 °F 44.3 °F 26.6 °F 46% 30.05 in 10.0 mi East 4.6 mph - N/A   Clear
2:55 AM 46.4 °F 43.5 °F 26.6 °F 46% 30.04 in 10.0 mi ENE 5.8 mph - N/A   Clear
3:15 AM 44.6 °F - 24.8 °F 46% 30.04 in 10.0 mi Calm Calm - N/A   Clear
3:35 AM 42.8 °F 41.1 °F 24.8 °F 49% 30.05 in 10.0 mi West 3.5 mph - N/A   Clear
3:55 AM 39.2 °F 37.0 °F 28.4 °F 65% 30.05 in 10.0 mi WSW 3.5 mph - N/A   Clear
4:15 AM 39.2 °F - 26.6 °F 61% 30.05 in 10.0 mi Calm Calm - N/A   Clear
4:35 AM 37.4 °F - 26.6 °F 65% 30.05 in 10.0 mi Calm Calm - N/A   Clear
4:55 AM 37.4 °F 34.9 °F 24.8 °F 60% 30.04 in 10.0 mi East 3.5 mph - N/A   Clear
5:15 AM 35.6 °F 30.7 °F 24.8 °F 65% 30.04 in 10.0 mi East 5.8 mph - N/A   Clear
5:35 AM 35.6 °F 32.8 °F 23.0 °F 60% 30.04 in 10.0 mi ENE 3.5 mph - N/A   Clear
5:55 AM 35.6 °F - 21.2 °F 56% 30.04 in 10.0 mi Calm Calm - N/A   Clear
6:15 AM 35.6 °F - 21.2 °F 56% 30.04 in 10.0 mi Calm Calm - N/A   Clear
6:35 AM 35.6 °F - 21.2 °F 56% 30.04 in 10.0 mi Calm Calm - N/A   Clear
6:55 AM 35.6 °F 32.8 °F 21.2 °F 56% 30.04 in 10.0 mi East 3.5 mph - N/A   Clear
7:15 AM 33.8 °F 29.6 °F 21.2 °F 60% 30.04 in 10.0 mi ENE 4.6 mph - N/A   Clear
7:35 AM 35.6 °F - 21.2 °F 56% 30.04 in 10.0 mi Calm Calm - N/A   Clear
7:55 AM 35.6 °F - 21.2 °F 56% 30.05 in 10.0 mi Calm Calm - N/A   Clear
8:15 AM 39.2 °F 37.0 °F 23.0 °F 52% 30.05 in 10.0 mi East 3.5 mph - N/A   Clear
8:35 AM 42.8 °F - 24.8 °F 49% 30.05 in 10.0 mi Calm Calm - N/A   Clear
8:55 AM 44.6 °F - 24.8 °F 46% 30.05 in 10.0 mi Calm Calm - N/A   Clear
9:15 AM 48.2 °F - 24.8 °F 40% 30.06 in 10.0 mi Calm Calm - N/A   Clear
9:35 AM 51.8 °F - 24.8 °F 35% 30.06 in 10.0 mi Calm Calm - N/A   Clear
9:55 AM 53.6 °F - 24.8 °F 33% 30.06 in 10.0 mi Calm Calm - N/A   Clear
10:15 AM 55.4 °F - 26.6 °F 33% 30.06 in 10.0 mi Calm Calm - N/A   Clear
10:35 AM 57.2 °F - 32.0 °F 38% 30.05 in 10.0 mi SW 3.5 mph - N/A   Clear
10:55 AM 59.0 °F - 37.4 °F 45% 30.05 in 10.0 mi SW 6.9 mph - N/A   Clear
11:15 AM 62.6 °F - 46.4 °F 55% 30.04 in 10.0 mi WSW 8.1 mph - N/A   Clear
11:35 AM 62.6 °F - 46.4 °F 55% 30.02 in 10.0 mi WSW 13.8 mph - N/A   Clear
11:55 AM 62.6 °F - 48.2 °F 59% 30.01 in 10.0 mi WSW 11.5 mph - N/A   Clear
12:15 PM 62.6 °F - 50.0 °F 63% 29.99 in 10.0 mi West 15.0 mph - N/A   Clear
12:35 PM 62.6 °F - 50.0 °F 63% 29.99 in 10.0 mi West 16.1 mph - N/A   Clear
12:55 PM 62.6 °F - 50.0 °F 63% 29.98 in 10.0 mi West 12.7 mph - N/A   Clear
1:15 PM 62.6 °F - 50.0 °F 63% 29.98 in 10.0 mi West 16.1 mph - N/A   Clear
1:35 PM 62.6 °F - 50.0 °F 63% 29.97 in 10.0 mi West 15.0 mph - N/A   Clear
1:55 PM 62.6 °F - 50.0 °F 63% 29.97 in 10.0 mi WSW 12.7 mph 19.6 mph N/A   Clear
2:15 PM 60.8 °F - 50.0 °F 68% 29.97 in 10.0 mi West 11.5 mph 18.4 mph N/A   Clear
2:35 PM 60.8 °F - 50.0 °F 68% 29.97 in 10.0 mi WSW 12.7 mph - N/A   Clear
2:55 PM 60.8 °F - 50.0 °F 68% 29.97 in 9.0 mi WSW 9.2 mph - N/A   Clear
3:15 PM 59.0 °F - 50.0 °F 72% 29.97 in 10.0 mi WSW 12.7 mph - N/A   Clear
3:35 PM 59.0 °F - 48.2 °F 67% 29.97 in 9.0 mi West 13.8 mph - N/A   Clear
3:55 PM 57.2 °F - 48.2 °F 72% 29.97 in 9.0 mi West 11.5 mph - N/A   Clear
4:15 PM 57.2 °F - 48.2 °F 72% 29.97 in 9.0 mi West 10.4 mph - N/A   Clear
4:35 PM 55.4 °F - 48.2 °F 77% 29.97 in 8.0 mi West 9.2 mph - N/A   Clear
4:55 PM 55.4 °F - 48.2 °F 77% 29.98 in 8.0 mi WSW 6.9 mph - N/A   Clear
5:15 PM 53.6 °F - 48.2 °F 82% 29.98 in 7.0 mi WSW 4.6 mph - N/A   Scattered Clouds
5:35 PM 53.6 °F - 46.4 °F 77% 29.97 in 8.0 mi West 4.6 mph - N/A   Overcast
5:55 PM 51.8 °F - 46.4 °F 82% 29.97 in 8.0 mi Calm Calm - N/A   Overcast
6:15 PM 51.8 °F - 44.6 °F 76% 29.98 in 7.0 mi Calm Calm - N/A   Overcast
6:35 PM 50.0 °F - 46.4 °F 87% 29.98 in 7.0 mi Calm Calm - N/A   Overcast
6:55 PM 50.0 °F - 44.6 °F 82% 29.99 in 6.0 mi ENE 3.5 mph - N/A   Overcast
7:15 PM 50.0 °F - 44.6 °F 82% 29.99 in 7.0 mi Calm Calm - N/A   Overcast
7:35 PM 51.8 °F - 46.4 °F 82% 29.99 in 7.0 mi Calm Calm - N/A   Overcast
7:55 PM 51.8 °F - 46.4 °F 82% 30.00 in 8.0 mi Calm Calm - N/A   Overcast
8:15 PM 53.6 °F - 46.4 °F 77% 30.00 in 8.0 mi ESE 3.5 mph - N/A   Overcast
8:35 PM 53.6 °F - 48.2 °F 82% 30.01 in 8.0 mi East 3.5 mph - N/A   Overcast
8:55 PM 53.6 °F - 48.2 °F 82% 30.02 in 8.0 mi ESE 5.8 mph - N/A   Overcast
9:15 PM 53.6 °F - 46.4 °F 77% 30.02 in 8.0 mi East 6.9 mph - N/A   Overcast
9:35 PM 51.8 °F - 46.4 °F 82% 30.02 in 7.0 mi East 5.8 mph - N/A   Overcast
9:55 PM 50.0 °F - 46.4 °F 87% 30.02 in 6.0 mi East 5.8 mph - N/A   Overcast
10:15 PM 50.0 °F - 46.4 °F 87% 30.02 in 5.0 mi East 6.9 mph - N/A   Overcast
10:35 PM 50.0 °F - 46.4 °F 87% 30.03 in 5.0 mi ENE 5.8 mph - N/A   Overcast
10:55 PM 48.2 °F - 46.4 °F 93% 30.04 in 4.0 mi ENE 6.9 mph - N/A   Overcast
11:15 PM 48.2 °F - 46.4 °F 93% 30.03 in 4.0 mi ESE 3.5 mph - N/A   Overcast
11:35 PM 48.2 °F - 44.6 °F 87% 30.03 in 4.0 mi East 8.1 mph - N/A   Overcast
11:55 PM 48.2 °F - 44.6 °F 87% 30.04 in 3.0 mi East 6.9 mph - N/A   Overcast